Find Starlink 30882

NORAD ID: 58379 Int'l Des: 2023-178 Owner: SPXS Country: US Constellation: starlink operational
LEOCIRCULAR

当前视图

正在加载3D地球...

About Starlink 30882

Starlink 30882 (NORAD 58379) is a starlink constellation satellite (v2 mini) launched Nov 20, 2023 by SPXS of US. It operates in LEO, CIRCULAR orbit with a mass of 730.00 kg.

关于 Starlink 30882

正在加载描述...

即将过境

Passes for default location (London). Set your location on the main map for personalized predictions.

高度历史

Loading altitude history...

两行轨道根数

1 58379U 23178F 26192.99875006 -.00000161 00000-0 63570-5 0 9992
2 58379 53.1598 141.5506 0001103 99.4835 260.6292 15.34389293148951
Epoch: Jul 11, 2026 • Age: 22 hours

当前状态

高度 472.4 km
远地点 / 近地点 N/A
速度 7.63 km/s
星下点 -29.86°S, 144.14°W
发射日期 Nov 20, 2023
运行时间 2.6 years
类型 internet

技术详情

分类 Payload
质量 730.00 kg
干质量 700.00 kg
总质量 730.00 kg
长度 0.30 m
直径 4.10 m
跨度 29.00 m
形状 Box + pan
制造商 SPXS
平台类型 Starlink V2M
阶段状态 In Orbit
所有者/国家 SPXS/US

Most Searched